When you browse on this site, cookies collect data to enhance your experience and personalize the content and advertising you see.
Visit our Privacy Policy to learn more. By continuing to use the site, you agree to this use of cookies and data.
  • en France
  • Liste des pays
  • À 7 jours
  • Température de l'eau
  • Carte météo
  • Widgets météo
  • user-avatar
    Se connecter

    Météo par heure à Gwatemala

    Ce jour, 2 Juin, Mardi

    Heure Température Précipitation Vent Pression Humidité
    00:00 +17°C° 0 mm 0 m/s 637 mmHg 97%
    01:00 +17°C° 0.2 mm 0 m/s 636 mmHg 97%
    02:00 +16°C° 0.2 mm 0 m/s 636 mmHg 97%
    03:00 +16°C° 0.2 mm 0 m/s 635 mmHg 97%
    04:00 +16°C° 0 mm 0 m/s 635 mmHg 97%
    05:00 +16°C° 0 mm 0 m/s 635 mmHg 97%
    06:00 +18°C° 0 mm 1 m/s 635 mmHg 97%
    07:00 +19°C° 0.1 mm 1 m/s 636 mmHg 95%
    08:00 +20°C° 0.1 mm 1 m/s 637 mmHg 94%
    09:00 +21°C° 0.1 mm 1 m/s 637 mmHg 92%
    10:00 +22°C° 0.8 mm 1 m/s 637 mmHg 91%
    11:00 +22°C° 0.8 mm 1 m/s 637 mmHg 90%
    12:00 +23°C° 0.8 mm 1 m/s 637 mmHg 89%
    13:00 +22°C° 1.3 mm 1 m/s 637 mmHg 91%
    14:00 +22°C° 1.3 mm 1 m/s 636 mmHg 93%
    15:00 +21°C° 1.3 mm 1 m/s 635 mmHg 95%
    16:00 +20°C° 5.2 mm 1 m/s 635 mmHg 96%
    17:00 +20°C° 5.2 mm 1 m/s 635 mmHg 97%
    18:00 +20°C° 5.2 mm 1 m/s 635 mmHg 98%
    19:00 +17°C° 2.7 mm 0 m/s 635 mmHg 98%
    20:00 +17°C° 2.7 mm 0 m/s 636 mmHg 98%
    21:00 +17°C° 2.7 mm 0 m/s 636 mmHg 98%
    22:00 +17°C° 0.3 mm 0 m/s 636 mmHg 98%
    23:00 +17°C° 0.3 mm 0 m/s 636 mmHg 98%

    Demain, 3 Juin, Mercredi

    Heure Température Précipitation Vent Pression Humidité
    00:00 +19°C° 0.3 mm 1 m/s 636 mmHg 98%
    01:00 +19°C° 0.2 mm 1 m/s 636 mmHg 98%
    02:00 +19°C° 0.2 mm 1 m/s 635 mmHg 98%
    03:00 +19°C° 0.2 mm 1 m/s 634 mmHg 98%
    04:00 +19°C° 0.1 mm 1 m/s 634 mmHg 98%
    05:00 +19°C° 0.1 mm 1 m/s 634 mmHg 98%
    06:00 +19°C° 0.1 mm 1 m/s 634 mmHg 98%
    07:00 +20°C° 0 mm 1 m/s 635 mmHg 95%
    08:00 +20°C° 0 mm 1 m/s 635 mmHg 93%
    09:00 +21°C° 0 mm 1 m/s 636 mmHg 91%
    10:00 +22°C° 0.1 mm 1 m/s 636 mmHg 89%
    11:00 +21°C° 0.1 mm 2 m/s 636 mmHg 86%
    12:00 +23°C° 0.1 mm 2 m/s 636 mmHg 84%
    13:00 +21°C° 0.7 mm 2 m/s 635 mmHg 86%
    14:00 +21°C° 0.7 mm 2 m/s 634 mmHg 88%
    15:00 +21°C° 0.7 mm 2 m/s 634 mmHg 90%
    16:00 +20°C° 0.5 mm 2 m/s 634 mmHg 92%
    17:00 +20°C° 0.5 mm 2 m/s 634 mmHg 94%
    18:00 +19°C° 0.5 mm 2 m/s 634 mmHg 95%
    19:00 +19°C° 0.1 mm 2 m/s 634 mmHg 96%
    20:00 +18°C° 0.1 mm 2 m/s 634 mmHg 96%
    21:00 +18°C° 0.1 mm 2 m/s 634 mmHg 96%
    22:00 +18°C° 0.1 mm 2 m/s 634 mmHg 96%
    23:00 +19°C° 0.1 mm 1 m/s 634 mmHg 96%

    Après-demain, 4 Juin, Jeudi

    Heure Température Précipitation Vent Pression Humidité
    00:00 +18°C° 0.1 mm 1 m/s 634 mmHg 96%
    01:00 +17°C° 0.1 mm 2 m/s 634 mmHg 96%
    02:00 +17°C° 0.1 mm 2 m/s 633 mmHg 96%
    03:00 +17°C° 0.1 mm 2 m/s 633 mmHg 96%
    04:00 +18°C° 0 mm 1 m/s 633 mmHg 96%
    05:00 +18°C° 0 mm 1 m/s 633 mmHg 96%
    06:00 +18°C° 0 mm 1 m/s 633 mmHg 96%
    07:00 +18°C° 0 mm 1 m/s 633 mmHg 94%
    08:00 +19°C° 0 mm 1 m/s 634 mmHg 92%
    09:00 +20°C° 0 mm 1 m/s 635 mmHg 90%
    10:00 +20°C° 0.1 mm 2 m/s 635 mmHg 87%
    11:00 +21°C° 0.1 mm 2 m/s 635 mmHg 84%
    12:00 +23°C° 0.1 mm 2 m/s 635 mmHg 80%
    13:00 +23°C° 0.4 mm 2 m/s 634 mmHg 83%
    14:00 +21°C° 0.4 mm 2 m/s 634 mmHg 86%
    15:00 +21°C° 0.4 mm 2 m/s 633 mmHg 88%
    16:00 +20°C° 1.6 mm 2 m/s 633 mmHg 91%
    17:00 +20°C° 1.6 mm 1 m/s 633 mmHg 93%
    18:00 +20°C° 1.6 mm 1 m/s 633 mmHg 96%
    19:00 +19°C° 1.9 mm 1 m/s 634 mmHg 96%
    20:00 +19°C° 1.9 mm 1 m/s 634 mmHg 97%
    21:00 +19°C° 1.9 mm 1 m/s 634 mmHg 97%
    22:00 +18°C° 0.1 mm 1 m/s 634 mmHg 96%
    23:00 +18°C° 0.1 mm 1 m/s 634 mmHg 96%

    5 Juin, Vendredi

    Heure Température Précipitation Vent Pression Humidité
    00:00 +16°C° 0.1 mm 2 m/s 634 mmHg 95%
    01:00 +16°C° 0.4 mm 1 m/s 633 mmHg 96%
    02:00 +16°C° 0.4 mm 1 m/s 633 mmHg 96%
    03:00 +16°C° 0.4 mm 1 m/s 633 mmHg 96%
    04:00 +16°C° 0.1 mm 1 m/s 633 mmHg 96%
    05:00 +16°C° 0.1 mm 1 m/s 633 mmHg 97%
    06:00 +16°C° 0.1 mm 1 m/s 633 mmHg 97%
    07:00 +18°C° 0 mm 1 m/s 634 mmHg 95%
    08:00 +19°C° 0 mm 1 m/s 635 mmHg 94%
    09:00 +20°C° 0 mm 1 m/s 635 mmHg 92%
    10:00 +20°C° 0.1 mm 1 m/s 635 mmHg 91%
    11:00 +20°C° 0.1 mm 1 m/s 635 mmHg 90%
    12:00 +20°C° 0.1 mm 1 m/s 635 mmHg 89%
    13:00 +20°C° 0.2 mm 1 m/s 635 mmHg 91%
    14:00 +20°C° 0.2 mm 1 m/s 634 mmHg 92%
    15:00 +19°C° 0.2 mm 2 m/s 634 mmHg 93%
    16:00 +20°C° 0.7 mm 1 m/s 634 mmHg 94%
    17:00 +19°C° 0.7 mm 1 m/s 634 mmHg 95%
    18:00 +19°C° 0.7 mm 1 m/s 634 mmHg 95%
    19:00 +19°C° 0.7 mm 1 m/s 634 mmHg 96%
    20:00 +19°C° 0.7 mm 1 m/s 635 mmHg 96%
    21:00 +18°C° 0.7 mm 1 m/s 635 mmHg 97%
    22:00 +18°C° 1.9 mm 1 m/s 635 mmHg 97%
    23:00 +16°C° 1.9 mm 0 m/s 635 mmHg 98%

    6 Juin, Samedi

    Heure Température Précipitation Vent Pression Humidité
    00:00 +16°C° 1.9 mm 0 m/s 635 mmHg 98%
    01:00 +16°C° 2.8 mm 0 m/s 635 mmHg 98%
    02:00 +16°C° 2.8 mm 0 m/s 634 mmHg 98%
    03:00 +16°C° 2.8 mm 0 m/s 634 mmHg 98%
    04:00 +18°C° 5.4 mm 1 m/s 634 mmHg 98%
    05:00 +18°C° 5.4 mm 1 m/s 635 mmHg 98%
    06:00 +18°C° 5.4 mm 1 m/s 635 mmHg 98%
    07:00 +19°C° 1.3 mm 1 m/s 635 mmHg 98%
    08:00 +19°C° 1.3 mm 1 m/s 636 mmHg 97%
    09:00 +19°C° 1.3 mm 1 m/s 636 mmHg 97%
    10:00 +19°C° 0.3 mm 1 m/s 636 mmHg 96%
    11:00 +20°C° 0.3 mm 1 m/s 636 mmHg 95%
    12:00 +19°C° 0.3 mm 2 m/s 636 mmHg 93%
    13:00 +20°C° 0.3 mm 1 m/s 636 mmHg 93%
    14:00 +20°C° 0.3 mm 1 m/s 635 mmHg 93%
    15:00 +20°C° 0.3 mm 1 m/s 635 mmHg 93%
    16:00 +20°C° 0.1 mm 1 m/s 635 mmHg 94%
    17:00 +20°C° 0.1 mm 1 m/s 635 mmHg 94%
    18:00 +19°C° 0.1 mm 1 m/s 635 mmHg 95%
    19:00 +19°C° 0 mm 1 m/s 635 mmHg 96%
    20:00 +19°C° 0 mm 1 m/s 636 mmHg 96%
    21:00 +19°C° 0 mm 1 m/s 636 mmHg 96%
    22:00 +18°C° 0.2 mm 1 m/s 636 mmHg 96%
    23:00 +18°C° 0.2 mm 1 m/s 636 mmHg 96%

    7 Juin, Dimanche

    Heure Température Précipitation Vent Pression Humidité
    00:00 +16°C° 0.2 mm 0 m/s 636 mmHg 97%
    01:00 +18°C° 0 mm 1 m/s 636 mmHg 96%
    02:00 +18°C° 0 mm 1 m/s 636 mmHg 96%
    03:00 +18°C° 0 mm 1 m/s 635 mmHg 96%
    04:00 +16°C° 0.1 mm 0 m/s 635 mmHg 96%
    05:00 +16°C° 0.1 mm 0 m/s 635 mmHg 96%
    06:00 +16°C° 0.1 mm 0 m/s 635 mmHg 96%
    07:00 +17°C° 0 mm 0 m/s 636 mmHg 94%
    08:00 +19°C° 0 mm 1 m/s 636 mmHg 93%
    09:00 +20°C° 0 mm 1 m/s 637 mmHg 91%
    10:00 +21°C° 0.3 mm 1 m/s 637 mmHg 88%
    11:00 +22°C° 0.3 mm 1 m/s 637 mmHg 85%
    12:00 +23°C° 0.3 mm 2 m/s 637 mmHg 82%
    13:00 +23°C° 1.1 mm 2 m/s 637 mmHg 85%
    14:00 +21°C° 1.1 mm 2 m/s 636 mmHg 88%
    15:00 +21°C° 1.1 mm 2 m/s 635 mmHg 91%
    16:00 +20°C° 0.5 mm 2 m/s 635 mmHg 93%
    17:00 +19°C° 0.5 mm 2 m/s 635 mmHg 94%
    18:00 +19°C° 0.5 mm 2 m/s 635 mmHg 96%
    19:00 +18°C° 0 mm 2 m/s 635 mmHg 96%
    20:00 +18°C° 0 mm 2 m/s 636 mmHg 96%
    21:00 +19°C° 0 mm 1 m/s 636 mmHg 97%
    22:00 +19°C° 0 mm 1 m/s 636 mmHg 97%
    23:00 +18°C° 0 mm 1 m/s 636 mmHg 96%
    Voir plus